sat.trackr.live / text

‹ back to catalog

GEO-KOMPSAT-2B

NORAD 45246 · 2020-013B

PAYLOAD ACTIVE UNKNOWN

§ Identity

Operator
Country
SKOR
Launch date
2020-02-18
Launch site
FRGUI
Launch vehicle
Mass (kg)
RCS (m²)

Purposes: comms

External: N2YO · Heavens-Above · Gunter

§ Orbital elements

Epoch: 2026-09-13T01:27:38.873376Z

Period
1,436.07 min
Inclination
0.0574°
Eccentricity
0.0001051
Mean motion
1.00273858 rev/d
Perigee alt
35,781.6 km
Apogee alt
35,790.4 km
Semi-major
42,164.2 km
B*
0.0000e+0
RAAN
314.2879°
Arg perigee
271.5274°
Mean anomaly
276.4207°
Rev number
2,416

§ Raw data

GEO-KOMPSAT-2B1 45246U 20013B   26256.06086659 -.00000356  00000+0  00000+0 0  99912 45246   0.0574 314.2879 0001051 271.5274 276.4207  1.00273858 24163

JSON: /api/v1/satellites/45246 · /tle

For live sub-satellite position, see the globe view (requires WebGL).

§ Visibility from observer

Set your observer location to see the next 7 days of passes ≥ 10°. The values pass through the URL so the page stays shareable.

No JS? Fill the form by hand. The geolocation button needs JavaScript.